Flag for Albania Weather past 2 weeks in Tirana, Albania

Now
93 °F

Sunny.


Feels Like: 93 °F
Forecast: 70 / 98 °F
Wind: 10 mph from North

Location: Tirana Airport

Current Time: Aug 31, 2015 at 5:48:01 PM

Latest Report: Aug 31, 2015 at 5:20 PM


Visibility: 10 mi

Pressure: 29.98 "Hg

Humidity: 32%

Dew point: 59 °F

Location of TiranaLocation

Historic Weather in Tirana — Graph

°F

Tirana temperature yesterday

Maximum temperature yesterday: 97 °F (at 11:50 AM)
Minimum temperature yesterday: 66 °F (at 4:20 AM)
Average temperature yesterday: 81 °F

Past Weeks' High & Low Weather Summary

 TemperatureHumidityPressure
High99 °F (Aug 31, 12:50 PM)94% (Aug 17, 1:50 AM)30.12 "Hg (Aug 17, 1:50 AM)
Low61 °F (Aug 21, 6:20 AM)18% (Aug 30, 1:20 PM)29.77 "Hg (Aug 16, 4:20 PM)
Average78 °F62%29.98 "Hg
* Reported Aug 16 4:20 PM — Aug 31 4:50 PM, Tirana, Weather by CustomWeather, © 2015

Note: Actual official high and low records may vary slightly from our data, if they occured in-between our weather recording intervals... More about our weather records

Advertising

Tirana weather history for previous 24 hours

 ConditionsComfort  
Time TempWeatherWind HumidityBarometerVisibility
4:50 PM
Mon, Aug 31
93 °FSunny.10 mph32%29.98 "Hg10 mi
4:20 PM93 °FSunny.12 mph32%29.98 "Hg10 mi
3:20 PM97 °FPassing clouds.8 mph25%29.98 "HgN/A
2:50 PM97 °FPassing clouds.9 mph23%30.01 "HgN/A
2:20 PM95 °FPassing clouds.13 mph25%30.01 "HgN/A
1:50 PM99 °FPassing clouds.6 mph24%30.01 "HgN/A
1:20 PM99 °FPassing clouds.10 mph19%30.01 "HgN/A
12:50 PM99 °FPassing clouds.9 mph21%30.01 "HgN/A
12:20 PM97 °FPassing clouds.10 mph20%30.04 "HgN/A
11:50 AM97 °FPassing clouds.12 mph20%30.04 "HgN/A
11:20 AM97 °FPassing clouds.8 mph22%30.04 "HgN/A
10:50 AM95 °FSunny.2 mph30%30.04 "Hg10 mi
10:20 AM91 °FPassing clouds.3 mph36%30.07 "HgN/A
9:50 AM91 °FSunny.2 mph38%30.07 "Hg10 mi
9:20 AM86 °FSunny.No wind43%30.07 "Hg10 mi
8:50 AM81 °FSunny.2 mph42%30.07 "Hg10 mi
8:20 AM77 °FSunny.2 mph51%30.07 "Hg10 mi
7:50 AM75 °FSunny.No wind54%30.07 "Hg10 mi
7:20 AM72 °FSunny.2 mph65%30.07 "Hg10 mi
6:50 AM66 °FPassing clouds.3 mph78%30.07 "HgN/A
6:20 AM66 °FClear.3 mph73%30.07 "Hg10 mi
5:50 AM66 °FClear.2 mph78%30.07 "Hg10 mi
5:20 AM66 °FClear.No wind78%30.07 "Hg10 mi
4:50 AM68 °FClear.2 mph73%30.07 "Hg10 mi
4:20 AM68 °FClear.2 mph73%30.07 "Hg10 mi
3:50 AM70 °FClear.3 mph64%30.07 "Hg10 mi
3:20 AM70 °FClear.2 mph69%30.07 "Hg10 mi
2:50 AM72 °FClear.5 mph61%30.09 "Hg10 mi
2:20 AM70 °FClear.6 mph69%30.09 "Hg10 mi
1:50 AM70 °FClear.3 mph73%30.09 "Hg10 mi
1:20 AM70 °FPassing clouds.3 mph73%30.09 "HgN/A
12:50 AM72 °FClear.3 mph69%30.09 "Hg10 mi
12:20 AM70 °FClear.5 mph73%30.09 "Hg10 mi
11:20 PM
Sun, Aug 30
72 °FClear.3 mph69%30.09 "Hg10 mi
10:50 PM73 °FClear.3 mph69%30.09 "Hg10 mi
10:20 PM73 °FClear.5 mph74%30.09 "Hg10 mi
9:20 PM75 °FClear.2 mph69%30.09 "Hg10 mi
8:50 PM75 °FClear.2 mph69%30.09 "Hg10 mi
8:20 PM77 °FClear.No wind65%30.09 "Hg10 mi
7:50 PM79 °FSunny.2 mph58%30.07 "Hg10 mi
7:20 PM81 °FSunny.5 mph51%30.07 "Hg10 mi
6:50 PM82 °FSunny.6 mph48%30.07 "Hg10 mi
6:20 PM86 °FSunny.8 mph49%30.07 "Hg10 mi
5:50 PM91 °FPassing clouds.8 mph41%30.07 "HgN/A
5:20 PM93 °FSunny.9 mph26%30.07 "Hg10 mi
Weather by CustomWeather, © 2015

See weather overviewHow to use our weather pages